Simultaneous Nadir Overpasses (SNOs) Predictions

Prediction of SNOs between LANDSAT-8 and METOP-A Satellite Orbit:

Table of predicted SNOs for the next 14.0 days since TLE Epoch: 3/15/2014
Index Date (LANDSAT-8) Time (LANDSAT-8) Lat,Lon (LANDSAT-8) SZA (LANDSAT-8 ) Date (METOP-A) Time (METOP-A) Lat,Lon (METOP-A) SZA (METOP-A ) Distance(km) Time Diff (sec)
1 03/16/2014 08:52:14 81.18, 87.24 84.74 03/16/2014 08:51:59 81.19, 87.28 84.74 0.93 15
2 03/16/2014 09:41:40 -81.20,-104.81 95.23 03/16/2014 09:42:38 -81.21,-104.63 95.18 3.31 58
3 03/19/2014 04:26:25 81.19, 153.85 83.68 03/19/2014 04:26:17 81.19, 153.86 83.67 0.23 8
4 03/19/2014 05:15:51 -81.21, -38.18 96.29 03/19/2014 05:16:56 -81.21, -38.02 96.25 2.76 65
5 03/21/2014 23:11:16 -81.07, 50.77 97.68 03/21/2014 23:10:02 -81.11, 50.65 97.68 5.36 74
6 03/22/2014 00:00:37 81.19,-139.78 82.58 03/22/2014 00:00:36 81.19,-139.63 82.60 2.62 1
7 03/22/2014 00:50:03 -81.21, 28.22 97.39 03/22/2014 00:51:16 -81.21, 28.14 97.37 1.36 73
8 03/24/2014 18:45:23 -81.17, 118.74 98.54 03/24/2014 18:44:17 -81.17, 118.62 98.58 2.13 66
9 03/24/2014 19:34:48 81.19, -73.27 81.50 03/24/2014 19:34:55 81.19, -73.19 81.52 1.42 7
10 03/27/2014 14:19:33 -81.18,-174.59 99.59 03/27/2014 14:18:35 -81.18,-174.60 99.62 0.52 58




NCC Satellite Simultaneous Nadir Overpasses (SNOs) Prediction Service
